If you wish to contribute or participate in the discussions about articles you are invited to join SKYbrary as a registered user

 Actions

Kharkiv International Airport

From SKYbrary Wiki

UKHH
Airport
ICAO: UKHH
Summary
Name Kharkiv International Airport
Region Europe
Territory Ukraine UA.gif
Location Kharkiv
Serving
Coordinates 49° 55' 36.84" N, 36° 17' 31.24" E
Runways
Designator Length Width Surface ROPS
8/26 2220 m7,283.465 ft
50 m164.042 ft
PEM /


METAR
Observation UKHH 231630Z 28003MPS 2800 BR OVC003 10/10 Q1022 R25/0///81 BECMG 2100
Station Kharkiv
Date/Time 23 October 2019 16:30:00
Wind direction 280°
Wind speed kts
Lowest cloud amount overcast
Temperature 10°C
Dew point 10°C
Humidity 100%
QNH 1022 hPa
Weather condition n/a

Kharkiv International Airport (IATA: HRK) is an airport located in Kharkiv, Ukraine.